Вернуться в каталог

STARLINK-36325

АктивенСвязьVLEO
NORAD 67861·PAYLOAD·🇺🇸 United States

Запущен Feb 20, 2026 с Vandenberg Space Force Base

Loading…

Ближайшие Пролёты (ближайшие 24 часа)

TLE

СвежийSource: CelesTrak SupGP

Эпоха: Sep 15, 2026, 03:29 UTC

1 67861C 26034M   26258.14562500  .00008264  00000+0  24423-3 0  2584
2 67861  53.1605  42.5805 0001091  86.9259 345.6018 15.34378382    16

Отслеживайте STARLINK-36325 в реальном времени с AllMySat

Download on the App Store